User: anonymous   Login
Location: ?
(35.4996°N, 139.3166°E)
Time: 16:11:14
(UTC+00:00)
Language:

Terra - Orbit

View from above orbital plane
View from above orbital plane
View from above satellite
View from above satellite

Ground track
Ground track

The orbit data is extracted from the following two-line orbital elements,

1 25994U 99068A   24171.49916853  .00000604  00000-0  13586-3 0  9997
2 25994  98.0480 234.9190 0002265  35.6265  88.3674 14.59817753303507
Epoch (UTC): 19 June 2024 11:58:48
Eccentricity: 0.0002265
inclination: 98.0480°
perigee height: 692 km
apogee height: 695 km
right ascension of ascending node: 234.9190°
argument of perigee: 35.6265°
revolutions per day: 14.59817753
mean anomaly at epoch: 88.3674°
orbit number at epoch: 30350

The dashed part of the orbit path shows where the satellite is in the earth's shadow,  

DLR